Location: Bon Acre
(42.6442°N, 73.5758°W)
Time: 02:45:05
(UTC+00:00)

SL-08 R/B - Pass Details

Date: 18 March 2026
Orbit: 946 x 992 km, 83.0° (Epoch: 13 April)

Event Time Altitude Azimuth Distance (km) Brightness Sun altitude
Exits shadow 00:03:02 15° 102° (ESE) 2,301 5.8 -11.8°
Maximum altitude 00:04:51 17° 81° (E) 2,182 5.8 -12.1°
Drops below altitude 10° 00:08:38 10° 42° (NE) 2,673 6.5 -12.8°
Sets 00:11:58 0° 24° (NNE) 3,624 7.4 -13.4°
